| time (UTC) | temp F | wind direction | speed MPH | gust MPH | rain 1hr in | rain 24hr in | rain mn in | humidity % | barometer mb |
| 20260507153609 | 53 | 43 | 3.0 | 6.0 | 0.00 | 0.02 | 0.02 | 60 | 1014.5 |
| 20260507153106 | 54 | 344 | 5.0 | 5.0 | 0.00 | 0.02 | 0.02 | 59 | 1014.6 |
| 20260507152602 | 54 | 310 | 1.0 | 4.0 | 0.00 | 0.02 | 0.02 | 59 | 1014.6 |
| 20260507152058 | 53 | 62 | 4.0 | 6.0 | 0.00 | 0.02 | 0.02 | 59 | 1014.8 |
| 20260507151554 | 53 | 108 | 0.0 | 2.0 | 0.00 | 0.02 | 0.02 | 65 | 1014.8 |
| 20260507151052 | 53 | 105 | 0.0 | 5.0 | 0.00 | 0.02 | 0.02 | 60 | 1014.8 |
| 20260507150549 | 53 | 168 | 2.0 | 4.0 | 0.00 | 0.02 | 0.02 | 63 | 1014.9 |
| 20260507150045 | 53 | 280 | 2.0 | 8.0 | 0.00 | 0.02 | 0.02 | 65 | 1015.0 |
| 20260507145540 | 54 | 224 | 7.0 | 9.0 | 0.00 | 0.02 | 0.02 | 61 | 1015.1 |
| 20260507145038 | 50 | 95 | 2.0 | 2.0 | 0.00 | 0.02 | 0.02 | 67 | 1015.1 |
| 20260507144534 | 54 | 251 | 7.0 | 9.0 | 0.00 | 0.02 | 0.02 | 67 | 1015.2 |
| 20260507144026 | 52 | 214 | 2.0 | 2.0 | 0.00 | 0.02 | 0.02 | 68 | 1015.3 |
| 20260507143523 | 51 | 53 | 2.0 | 3.0 | 0.00 | 0.02 | 0.02 | 72 | 1015.3 |
| 20260507143021 | 51 | 345 | 2.0 | 4.0 | 0.00 | 0.02 | 0.02 | 71 | 1015.5 |
| 20260507142515 | 52 | 18 | 1.0 | 3.0 | 0.00 | 0.02 | 0.02 | 71 | 1015.5 |
| 20260507142013 | 51 | 32 | 2.0 | 3.0 | 0.00 | 0.02 | 0.02 | 73 | 1015.8 |
| 20260507141509 | 51 | 53 | 3.0 | 3.0 | 0.00 | 0.02 | 0.02 | 72 | 1015.8 |
| 20260507141007 | 50 | 353 | 3.0 | 3.0 | 0.00 | 0.02 | 0.02 | 76 | 1015.7 |
| 20260507140502 | 50 | 353 | 2.0 | 2.0 | 0.00 | 0.02 | 0.02 | 78 | 1015.8 |
| 20260507140000 | 51 | 284 | 2.0 | 2.0 | 0.00 | 0.02 | 0.02 | 76 | 1015.8 |
| 20260507135456 | 50 | 88 | 1.0 | 2.0 | 0.00 | 0.02 | 0.02 | 77 | 1015.8 |
| 20260507134953 | 50 | 33 | 3.0 | 3.0 | 0.00 | 0.02 | 0.02 | 79 | 1016.1 |
| 20260507134450 | 50 | 263 | 3.0 | 3.0 | 0.00 | 0.02 | 0.02 | 77 | 1016.1 |
| 20260507133946 | 50 | 20 | 2.0 | 3.0 | 0.00 | 0.02 | 0.02 | 81 | 1016.2 |
| 20260507133442 | 49 | 121 | 2.0 | 3.0 | 0.00 | 0.02 | 0.02 | 79 | 1016.2 |
| 20260507132941 | 49 | 67 | 3.0 | 4.0 | 0.00 | 0.02 | 0.02 | 80 | 1016.1 |
| 20260507132437 | 49 | 4 | 2.0 | 3.0 | 0.00 | 0.02 | 0.02 | 80 | 1016.3 |
| 20260507131933 | 48 | 352 | 0.0 | 2.0 | 0.00 | 0.02 | 0.02 | 81 | 1016.4 |
| 20260507131430 | 49 | 61 | 4.0 | 4.0 | 0.00 | 0.02 | 0.02 | 80 | 1016.1 |
| 20260507130927 | 49 | 57 | 2.0 | 3.0 | 0.00 | 0.02 | 0.02 | 81 | 1016.0 |
| 20260507130424 | 49 | 310 | 0.0 | 2.0 | 0.00 | 0.02 | 0.02 | 82 | 1016.2 |
| 20260507125923 | 48 | 26 | 1.0 | 1.0 | 0.00 | 0.02 | 0.02 | 85 | 1016.1 |
| 20260507125421 | 48 | 38 | 1.0 | 2.0 | 0.00 | 0.02 | 0.02 | 84 | 1016.3 |
| 20260507124918 | 48 | 299 | 0.0 | 1.0 | 0.00 | 0.02 | 0.02 | 86 | 1016.4 |
| 20260507124414 | 48 | 326 | 0.0 | 2.0 | 0.00 | 0.02 | 0.02 | 87 | 1016.2 |
| 20260507123913 | 48 | 218 | 0.0 | 0.0 | 0.00 | 0.02 | 0.02 | 89 | 1016.5 |
| 20260507123409 | 48 | 29 | 0.0 | 1.0 | 0.00 | 0.02 | 0.02 | 90 | 1016.4 |
| 20260507122906 | 47 | 89 | 0.0 | 2.0 | 0.00 | 0.02 | 0.02 | 90 | 1016.4 |
| 20260507122401 | 47 | 120 | 0.0 | 2.0 | 0.00 | 0.02 | 0.02 | 90 | 1016.4 |
| 20260507121858 | 47 | 235 | 0.0 | 1.0 | 0.00 | 0.02 | 0.02 | 91 | 1016.6 |
| 20260507121353 | 47 | 269 | 0.0 | 0.0 | 0.00 | 0.02 | 0.02 | 93 | 1016.5 |
| 20260507120850 | 47 | 354 | 1.0 | 2.0 | 0.00 | 0.02 | 0.02 | 93 | 1016.3 |
| 20260507120346 | 47 | 269 | 0.0 | 1.0 | 0.00 | 0.02 | 0.02 | 94 | 1016.2 |
| 20260507115842 | 47 | 219 | 0.0 | 0.0 | 0.00 | 0.02 | 0.02 | 94 | 1016.2 |
| 20260507115338 | 46 | 224 | 0.0 | 0.0 | 0.00 | 0.02 | 0.02 | 94 | 1016.1 |
| 20260507114834 | 47 | 210 | 0.0 | 2.0 | 0.00 | 0.02 | 0.02 | 94 | 1016.3 |
| 20260507114331 | 47 | 210 | 2.0 | 2.0 | 0.00 | 0.02 | 0.02 | 95 | 1016.1 |
| 20260507113829 | 46 | 322 | 0.0 | 1.0 | 0.00 | 0.02 | 0.02 | 95 | 1016.0 |
| 20260507113326 | 46 | 283 | 0.0 | 0.0 | 0.00 | 0.02 | 0.02 | 95 | 1015.8 |
| 20260507112823 | 46 | 326 | 0.0 | 1.0 | 0.00 | 0.02 | 0.02 | 95 | 1015.8 |
| 20260507112320 | 46 | 256 | 0.0 | 0.0 | 0.00 | 0.02 | 0.02 | 95 | 1015.7 |
| 20260507111818 | 46 | 231 | 0.0 | 0.0 | 0.00 | 0.02 | 0.02 | 95 | 1016.0 |
| 20260507111314 | 46 | 269 | 0.0 | 1.0 | 0.00 | 0.02 | 0.02 | 95 | 1015.6 |
| 20260507110810 | 46 | 175 | 1.0 | 2.0 | 0.00 | 0.02 | 0.02 | 95 | 1015.5 |
| 20260507110307 | 46 | 225 | 0.0 | 2.0 | 0.00 | 0.02 | 0.02 | 95 | 1015.4 |
| 20260507105804 | 46 | 98 | 1.0 | 1.0 | 0.00 | 0.02 | 0.02 | 95 | 1015.5 |
| 20260507105300 | 46 | 326 | 0.0 | 2.0 | 0.00 | 0.02 | 0.02 | 95 | 1015.3 |
| 20260507104757 | 46 | 28 | 1.0 | 2.0 | 0.00 | 0.02 | 0.02 | 95 | 1015.4 |
| 20260507104254 | 46 | 307 | 0.0 | 1.0 | 0.00 | 0.02 | 0.02 | 95 | 1015.5 |
| 20260507103750 | 46 | 246 | 0.0 | 0.0 | 0.00 | 0.02 | 0.02 | 95 | 1015.5 |
| 20260507103246 | 46 | 293 | 1.0 | 2.0 | 0.00 | 0.02 | 0.02 | 95 | 1015.2 |
| 20260507102742 | 46 | 321 | 0.0 | 0.0 | 0.00 | 0.02 | 0.02 | 94 | 1015.0 |
| 20260507102234 | 46 | 48 | 0.0 | 1.0 | 0.00 | 0.02 | 0.02 | 94 | 1015.2 |
| 20260507101730 | 46 | 82 | 1.0 | 2.0 | 0.00 | 0.02 | 0.02 | 94 | 1015.0 |
| 20260507101225 | 46 | 150 | 0.0 | 2.0 | 0.00 | 0.02 | 0.02 | 94 | 1015.3 |
| 20260507100722 | 46 | 86 | 0.0 | 1.0 | 0.00 | 0.02 | 0.02 | 93 | 1015.3 |
| 20260507100221 | 46 | 194 | 1.0 | 3.0 | 0.00 | 0.02 | 0.02 | 93 | 1015.1 |
| 20260507095718 | 46 | 209 | 0.0 | 1.0 | 0.00 | 0.02 | 0.02 | 92 | 1014.9 |
| 20260507095215 | 46 | 119 | 0.0 | 0.0 | 0.00 | 0.02 | 0.02 | 91 | 1015.2 |
| 20260507094712 | 46 | 72 | 0.0 | 3.0 | 0.00 | 0.02 | 0.02 | 90 | 1015.0 |
| 20260507094209 | 46 | 84 | 0.0 | 3.0 | 0.00 | 0.02 | 0.02 | 89 | 1014.9 |
| 20260507093705 | 47 | 54 | 3.0 | 4.0 | 0.00 | 0.02 | 0.02 | 90 | 1014.9 |
| 20260507093204 | 47 | 83 | 3.0 | 3.0 | 0.00 | 0.02 | 0.02 | 89 | 1015.0 |
| 20260507092701 | 47 | 38 | 4.0 | 5.0 | 0.00 | 0.02 | 0.02 | 89 | 1015.0 |
| 20260507092157 | 47 | 19 | 4.0 | 5.0 | 0.00 | 0.02 | 0.02 | 89 | 1015.1 |
| 20260507091653 | 47 | 38 | 4.0 | 6.0 | 0.00 | 0.02 | 0.02 | 89 | 1015.0 |
| 20260507091150 | 47 | 44 | 6.0 | 7.0 | 0.00 | 0.02 | 0.02 | 91 | 1014.9 |
| 20260507090646 | 47 | 9 | 3.0 | 5.0 | 0.00 | 0.02 | 0.02 | 92 | 1014.9 |
| 20260507090143 | 47 | 27 | 3.0 | 6.0 | 0.00 | 0.02 | 0.02 | 92 | 1015.2 |
| 20260507085640 | 47 | 15 | 3.0 | 7.0 | 0.02 | 0.02 | 0.02 | 93 | 1015.0 |
| 20260507085137 | 47 | 12 | 6.0 | 8.0 | 0.02 | 0.02 | 0.02 | 95 | 1014.9 |
| 20260507084634 | 48 | 55 | 4.0 | 6.0 | 0.02 | 0.01 | 0.01 | 95 | 1014.7 |
| 20260507084130 | 48 | 358 | 3.0 | 3.0 | 0.02 | 0.01 | 0.01 | 95 | 1014.9 |
| 20260507083627 | 48 | 240 | 0.0 | 0.0 | 0.02 | 0.01 | 0.01 | 95 | 1015.0 |
| 20260507083124 | 48 | 147 | 0.0 | 0.0 | 0.02 | 0.01 | 0.01 | 95 | 1015.0 |
| 20260507082620 | 48 | 256 | 0.0 | 0.0 | 0.00 | 0.00 | 0.00 | 95 | 1015.1 |
| 20260507082116 | 48 | 221 | 0.0 | 0.0 | 0.00 | 0.00 | 0.00 | 95 | 1015.1 |
| 20260507081613 | 48 | 256 | 0.0 | 0.0 | 0.00 | 0.00 | 0.00 | 95 | 1015.0 |
| 20260507081110 | 48 | 127 | 1.0 | 1.0 | 0.00 | 0.00 | 0.00 | 95 | 1015.0 |
| 20260507080606 | 48 | 76 | 0.0 | 0.0 | 0.00 | 0.00 | 0.00 | 95 | 1014.8 |
| 20260507075557 | 48 | 113 | 0.0 | 1.0 | 0.00 | 0.00 | 0.00 | 95 | 1014.9 |
| 20260507075054 | 48 | 124 | 0.0 | 0.0 | 0.00 | 0.00 | 0.00 | 95 | 1014.8 |
| 20260507074551 | 48 | 89 | 0.0 | 0.0 | 0.00 | 0.00 | 0.00 | 95 | 1014.8 |
| 20260507074049 | 48 | 212 | 0.0 | 2.0 | 0.00 | 0.00 | 0.00 | 95 | 1015.1 |
| 20260507073545 | 48 | 233 | 0.0 | 1.0 | 0.00 | 0.00 | 0.00 | 95 | 1015.0 |
| 20260507073042 | 48 | 174 | 0.0 | 0.0 | 0.00 | 0.00 | 0.00 | 95 | 1014.8 |
| 20260507072539 | 48 | 49 | 0.0 | 0.0 | 0.00 | 0.00 | 0.00 | 95 | 1014.9 |
| 20260507072036 | 48 | 76 | 0.0 | 0.0 | 0.00 | 0.00 | 0.00 | 95 | 1014.7 |
| 20260507071534 | 48 | 228 | 0.0 | 0.0 | 0.00 | 0.00 | 0.00 | 95 | 1014.9 |
| 20260507071030 | 48 | 228 | 0.0 | 0.0 | 0.00 | 0.00 | 0.00 | 95 | 1015.0 |
| 20260507070527 | 48 | 228 | 0.0 | 0.0 | 0.00 | 0.00 | 0.00 | 95 | 1015.0 |
| 20260507070024 | 48 | 228 | 0.0 | 0.0 | 0.00 | 0.00 | 0.00 | 95 | 1014.8 |
| 20260507065520 | 48 | 197 | 0.0 | 2.0 | 0.00 | 0.00 | 0.00 | 95 | 1015.0 |
| 20260507065018 | 48 | 238 | 2.0 | 2.0 | 0.00 | 0.00 | 0.00 | 95 | 1015.0 |
| 20260507064516 | 48 | 124 | 0.0 | 0.0 | 0.00 | 0.00 | 0.00 | 95 | 1014.9 |
| 20260507064014 | 48 | 110 | 0.0 | 1.0 | 0.00 | 0.00 | 0.00 | 96 | 1014.6 |
| 20260507063510 | 48 | 235 | 0.0 | 2.0 | 0.00 | 0.00 | 0.00 | 96 | 1014.8 |
| 20260507063008 | 49 | 252 | 1.0 | 2.0 | 0.00 | 0.00 | 0.00 | 96 | 1014.9 |
| 20260507062504 | 49 | 107 | 0.0 | 0.0 | 0.00 | 0.00 | 0.00 | 96 | 1014.9 |
| 20260507062002 | 49 | 157 | 0.0 | 3.0 | 0.00 | 0.00 | 0.00 | 96 | 1015.0 |
| 20260507061459 | 49 | 246 | 0.0 | 2.0 | 0.02 | 0.00 | 0.00 | 95 | 1015.0 |
| 20260507060958 | 49 | 113 | 0.0 | 0.0 | 0.02 | 0.00 | 0.00 | 95 | 1015.2 |
| 20260507060454 | 49 | 113 | 0.0 | 0.0 | 0.00 | 0.00 | 0.00 | 95 | 1015.4 |
| 20260507055951 | 49 | 223 | 0.0 | 1.0 | 0.00 | 0.00 | 0.00 | 95 | 1015.4 |
| 20260507055446 | 49 | 221 | 1.0 | 2.0 | 0.00 | 0.00 | 0.00 | 95 | 1015.4 |
| 20260507054943 | 49 | 22 | 0.0 | 0.0 | 0.00 | 0.00 | 0.00 | 95 | 1015.4 |
| 20260507054439 | 49 | 55 | 0.0 | 1.0 | 0.00 | 0.00 | 0.00 | 95 | 1015.6 |
| 20260507053937 | 49 | 142 | 0.0 | 0.0 | 0.00 | 0.00 | 0.00 | 95 | 1015.3 |
| 20260507053434 | 49 | 224 | 0.0 | 0.0 | 0.00 | 0.00 | 0.00 | 95 | 1015.7 |
| 20260507052932 | 49 | 233 | 0.0 | 2.0 | 0.00 | 0.00 | 0.00 | 95 | 1015.5 |
| 20260507052430 | 49 | 246 | 2.0 | 3.0 | 0.00 | 0.00 | 0.00 | 95 | 1015.7 |
| 20260507051927 | 49 | 298 | 2.0 | 3.0 | 0.00 | 0.00 | 0.00 | 95 | 1015.6 |
| 20260507051424 | 49 | 222 | 0.0 | 1.0 | 0.00 | 0.00 | 0.00 | 95 | 1015.6 |
| 20260507050921 | 49 | 130 | 0.0 | 1.0 | 0.00 | 0.00 | 0.00 | 94 | 1015.6 |
| 20260507050418 | 49 | 214 | 0.0 | 2.0 | 0.00 | 0.00 | 0.00 | 94 | 1015.8 |
| 20260507045915 | 49 | 229 | 1.0 | 2.0 | 0.00 | 0.00 | 0.00 | 94 | 1015.7 |
| 20260507045411 | 49 | 241 | 1.0 | 2.0 | 0.00 | 0.00 | 0.00 | 94 | 1015.6 |
| 20260507044908 | 49 | 119 | 0.0 | 0.0 | 0.00 | 0.00 | 0.00 | 94 | 1015.7 |
| 20260507044405 | 49 | 159 | 0.0 | 2.0 | 0.00 | 0.00 | 0.00 | 93 | 1016.0 |
| 20260507043901 | 49 | 131 | 0.0 | 0.0 | 0.00 | 0.00 | 0.00 | 93 | 1015.5 |
| 20260507043357 | 49 | 352 | 2.0 | 3.0 | 0.00 | 0.00 | 0.00 | 93 | 1015.6 |
| 20260507042854 | 49 | 18 | 2.0 | 3.0 | 0.00 | 0.00 | 0.00 | 93 | 1015.6 |
| 20260507042350 | 49 | 57 | 1.0 | 3.0 | 0.00 | 0.00 | 0.00 | 93 | 1015.4 |
| 20260507041846 | 49 | 5 | 0.0 | 3.0 | 0.00 | 0.00 | 0.00 | 92 | 1015.4 |
| 20260507041343 | 49 | 333 | 2.0 | 3.0 | 0.00 | 0.00 | 0.00 | 92 | 1015.6 |
| 20260507040841 | 50 | 296 | 0.0 | 2.0 | 0.00 | 0.00 | 0.00 | 91 | 1015.5 |
| 20260507040336 | 50 | 16 | 0.0 | 2.0 | 0.00 | 0.00 | 0.00 | 91 | 1015.4 |
| 20260507035833 | 50 | 342 | 2.0 | 5.0 | 0.00 | 0.61 | 0.61 | 90 | 1015.2 |
| 20260507035328 | 50 | 88 | 4.0 | 7.0 | 0.00 | 0.61 | 0.61 | 90 | 1015.4 |
| 20260507034826 | 50 | 88 | 6.0 | 8.0 | 0.00 | 0.61 | 0.61 | 90 | 1015.5 |
| 20260507034323 | 50 | 55 | 7.0 | 7.0 | 0.00 | 0.61 | 0.61 | 91 | 1015.3 |
| 20260507033821 | 50 | 44 | 3.0 | 5.0 | 0.02 | 0.61 | 0.61 | 92 | 1015.3 |
| 20260507033318 | 50 | 13 | 5.0 | 9.0 | 0.02 | 0.61 | 0.61 | 91 | 1015.3 |
| 20260507032815 | 50 | 42 | 4.0 | 5.0 | 0.00 | 0.61 | 0.61 | 92 | 1015.5 |
| 20260507032311 | 50 | 3 | 3.0 | 4.0 | 0.00 | 0.61 | 0.61 | 91 | 1015.0 |
| 20260507031808 | 50 | 67 | 5.0 | 6.0 | 0.00 | 0.61 | 0.61 | 92 | 1015.3 |
| 20260507031305 | 50 | 41 | 5.0 | 10.0 | 0.00 | 0.61 | 0.61 | 92 | 1015.4 |
| 20260507030801 | 50 | 45 | 8.0 | 13.0 | 0.02 | 0.61 | 0.61 | 93 | 1016.3 |
| 20260507030259 | 51 | 6 | 5.0 | 7.0 | 0.02 | 0.61 | 0.61 | 93 | 1015.4 |
| 20260507025756 | 51 | 17 | 3.0 | 9.0 | 0.00 | 0.60 | 0.60 | 93 | 1015.3 |
| 20260507025253 | 51 | 55 | 6.0 | 7.0 | 0.02 | 0.60 | 0.60 | 93 | 1014.3 |
| 20260507024751 | 51 | 73 | 4.0 | 8.0 | 0.02 | 0.60 | 0.60 | 94 | 1014.5 |
| 20260507024248 | 51 | 62 | 3.0 | 9.0 | 0.00 | 0.60 | 0.60 | 94 | 1014.7 |
| 20260507023743 | 51 | 65 | 4.0 | 5.0 | 0.02 | 0.60 | 0.60 | 95 | 1015.1 |
| 20260507023240 | 52 | 10 | 4.0 | 5.0 | 0.02 | 0.60 | 0.60 | 95 | 1015.4 |
| 20260507022738 | 52 | 50 | 2.0 | 3.0 | 0.02 | 0.59 | 0.59 | 95 | 1015.0 |
| 20260507022233 | 52 | 331 | 0.0 | 2.0 | 0.02 | 0.59 | 0.59 | 95 | 1015.5 |
| 20260507021730 | 52 | 20 | 0.0 | 2.0 | 0.02 | 0.59 | 0.59 | 95 | 1015.1 |
| 20260507021225 | 52 | 26 | 1.0 | 2.0 | 0.00 | 0.59 | 0.59 | 94 | 1015.2 |
| 20260507020724 | 52 | 246 | 0.0 | 0.0 | 0.00 | 0.59 | 0.59 | 94 | 1014.9 |
| 20260507020220 | 52 | 315 | 0.0 | 1.0 | 0.00 | 0.59 | 0.59 | 94 | 1014.8 |
| 20260507015718 | 52 | 343 | 1.0 | 1.0 | 0.00 | 0.59 | 0.59 | 94 | 1014.6 |
| 20260507015215 | 52 | 246 | 0.0 | 0.0 | 0.00 | 0.59 | 0.59 | 94 | 1014.6 |
| 20260507014712 | 52 | 141 | 0.0 | 0.0 | 0.00 | 0.59 | 0.59 | 93 | 1014.5 |
| 20260507014208 | 52 | 296 | 3.0 | 3.0 | 0.00 | 0.59 | 0.59 | 93 | 1014.5 |
| 20260507013705 | 52 | 17 | 2.0 | 3.0 | 0.00 | 0.59 | 0.59 | 92 | 1014.6 |
| 20260507013202 | 52 | 3 | 2.0 | 4.0 | 0.00 | 0.59 | 0.59 | 92 | 1014.6 |
| 20260507012700 | 53 | 0 | 3.0 | 3.0 | 0.00 | 0.59 | 0.59 | 91 | 1014.5 |
| 20260507012155 | 53 | 22 | 3.0 | 5.0 | 0.00 | 0.59 | 0.59 | 91 | 1014.6 |
| 20260507011653 | 53 | 349 | 3.0 | 4.0 | 0.00 | 0.59 | 0.59 | 91 | 1014.4 |
| 20260507011149 | 53 | 26 | 2.0 | 2.0 | 0.00 | 0.59 | 0.59 | 91 | 1014.4 |
| 20260507010644 | 53 | 343 | 4.0 | 4.0 | 0.00 | 0.59 | 0.59 | 91 | 1014.3 |
| 20260507010140 | 53 | 34 | 3.0 | 3.0 | 0.00 | 0.59 | 0.59 | 92 | 1014.1 |
| 20260507005638 | 53 | 354 | 1.0 | 4.0 | 0.00 | 0.59 | 0.59 | 92 | 1014.3 |
| 20260507005133 | 53 | 336 | 0.0 | 1.0 | 0.00 | 0.59 | 0.59 | 91 | 1014.3 |
| 20260507004630 | 53 | 20 | 2.0 | 4.0 | 0.00 | 0.59 | 0.59 | 91 | 1014.3 |
| 20260507004128 | 53 | 35 | 2.0 | 4.0 | 0.00 | 0.59 | 0.59 | 91 | 1014.3 |
| 20260507003624 | 53 | 346 | 3.0 | 3.0 | 0.00 | 0.59 | 0.59 | 92 | 1014.3 |
| 20260507003120 | 53 | 15 | 3.0 | 4.0 | 0.00 | 0.59 | 0.59 | 91 | 1014.0 |
| 20260507002616 | 53 | 4 | 3.0 | 4.0 | 0.00 | 0.59 | 0.59 | 91 | 1013.6 |
| 20260507002112 | 53 | 28 | 4.0 | 5.0 | 0.00 | 0.59 | 0.59 | 91 | 1013.7 |
| 20260507001609 | 53 | 84 | 2.0 | 5.0 | 0.00 | 0.59 | 0.59 | 91 | 1013.9 |
| 20260507001106 | 53 | 27 | 3.0 | 6.0 | 0.00 | 0.59 | 0.59 | 91 | 1014.2 |
| 20260507000602 | 53 | 63 | 5.0 | 5.0 | 0.00 | 0.59 | 0.59 | 91 | 1014.4 |
| 20260507000058 | 53 | 322 | 2.0 | 4.0 | 0.00 | 0.59 | 0.59 | 91 | 1014.6 |
| 20260506235555 | 53 | 15 | 3.0 | 4.0 | 0.00 | 0.59 | 0.59 | 91 | 1014.8 |
| 20260506235050 | 53 | 359 | 3.0 | 4.0 | 0.00 | 0.59 | 0.59 | 91 | 1014.7 |
| 20260506234548 | 54 | 20 | 5.0 | 5.0 | 0.00 | 0.59 | 0.59 | 91 | 1014.4 |
| 20260506234045 | 54 | 14 | 4.0 | 4.0 | 0.00 | 0.59 | 0.59 | 92 | 1014.3 |
| 20260506233542 | 54 | 33 | 2.0 | 3.0 | 0.00 | 0.59 | 0.59 | 93 | 1014.5 |
| 20260506233039 | 54 | 256 | 0.0 | 0.0 | 0.00 | 0.59 | 0.59 | 93 | 1014.3 |
| 20260506232535 | 54 | 50 | 0.0 | 1.0 | 0.02 | 0.59 | 0.59 | 93 | 1014.3 |
| 20260506232030 | 54 | 345 | 0.0 | 1.0 | 0.02 | 0.59 | 0.59 | 92 | 1014.5 |
| 20260506231528 | 54 | 92 | 0.0 | 2.0 | 0.00 | 0.58 | 0.58 | 92 | 1014.3 |
| 20260506231026 | 55 | 8 | 2.0 | 3.0 | 0.00 | 0.58 | 0.58 | 92 | 1014.4 |
| 20260506230522 | 55 | 25 | 3.0 | 4.0 | 0.00 | 0.58 | 0.58 | 92 | 1014.3 |
| 20260506230020 | 55 | 329 | 2.0 | 2.0 | 0.00 | 0.58 | 0.58 | 92 | 1014.2 |
| 20260506225516 | 55 | 309 | 0.0 | 1.0 | 0.00 | 0.58 | 0.58 | 91 | 1014.2 |
| 20260506225012 | 55 | 314 | 1.0 | 3.0 | 0.00 | 0.58 | 0.58 | 91 | 1014.0 |
| 20260506224509 | 55 | 20 | 2.0 | 3.0 | 0.02 | 0.58 | 0.58 | 91 | 1014.0 |
| 20260506224006 | 55 | 350 | 2.0 | 3.0 | 0.02 | 0.58 | 0.58 | 91 | 1013.7 |
| 20260506223502 | 55 | 345 | 1.0 | 3.0 | 0.00 | 0.58 | 0.58 | 91 | 1013.6 |
| 20260506222959 | 55 | 25 | 1.0 | 2.0 | 0.02 | 0.58 | 0.58 | 91 | 1013.9 |
| 20260506222456 | 55 | 37 | 2.0 | 2.0 | 0.00 | 0.57 | 0.57 | 91 | 1013.7 |
| 20260506221952 | 55 | 327 | 3.0 | 3.0 | 0.05 | 0.57 | 0.57 | 91 | 1013.5 |
| 20260506221449 | 55 | 13 | 0.0 | 2.0 | 0.07 | 0.57 | 0.57 | 90 | 1013.4 |
| 20260506220947 | 55 | 141 | 0.0 | 3.0 | 0.02 | 0.57 | 0.57 | 90 | 1013.6 |
| 20260506220442 | 56 | 38 | 2.0 | 3.0 | 0.00 | 0.56 | 0.56 | 90 | 1013.6 |
| 20260506215934 | 56 | 67 | 1.0 | 2.0 | 0.00 | 0.56 | 0.56 | 90 | 1013.5 |
| 20260506215430 | 55 | 92 | 2.0 | 2.0 | 0.00 | 0.56 | 0.56 | 89 | 1013.9 |
| 20260506214926 | 56 | 13 | 3.0 | 4.0 | 0.02 | 0.56 | 0.56 | 89 | 1013.5 |
| 20260506214423 | 56 | 345 | 0.0 | 2.0 | 0.02 | 0.56 | 0.56 | 89 | 1013.5 |
| 20260506213921 | 56 | 1 | 2.0 | 4.0 | 0.00 | 0.56 | 0.56 | 89 | 1013.5 |
| 20260506213418 | 56 | 349 | 5.0 | 5.0 | 0.00 | 0.56 | 0.56 | 89 | 1013.5 |
| 20260506212916 | 56 | 5 | 2.0 | 5.0 | 0.00 | 0.56 | 0.56 | 90 | 1013.2 |
| 20260506212411 | 57 | 45 | 3.0 | 4.0 | 0.02 | 0.56 | 0.56 | 89 | 1012.9 |
| 20260506211906 | 57 | 17 | 4.0 | 6.0 | 0.02 | 0.56 | 0.56 | 89 | 1013.0 |
| 20260506211403 | 57 | 1 | 2.0 | 2.0 | 0.00 | 0.56 | 0.56 | 89 | 1013.0 |
| 20260506210900 | 57 | 310 | 0.0 | 2.0 | 0.00 | 0.56 | 0.56 | 88 | 1012.7 |
| 20260506210356 | 57 | 2 | 1.0 | 3.0 | 0.00 | 0.56 | 0.56 | 88 | 1012.9 |
| 20260506205854 | 57 | 21 | 5.0 | 5.0 | 0.00 | 0.56 | 0.56 | 88 | 1012.9 |
| 20260506205349 | 58 | 316 | 4.0 | 7.0 | 0.00 | 0.56 | 0.56 | 87 | 1012.7 |
| 20260506204846 | 59 | 301 | 3.0 | 4.0 | 0.00 | 0.56 | 0.56 | 87 | 1012.5 |
| 20260506204344 | 59 | 352 | 2.0 | 4.0 | 0.00 | 0.56 | 0.56 | 85 | 1012.6 |
| 20260506203841 | 59 | 340 | 2.0 | 3.0 | 0.00 | 0.56 | 0.56 | 85 | 1012.4 |
| 20260506203338 | 58 | 327 | 0.0 | 2.0 | 0.00 | 0.56 | 0.56 | 86 | 1012.4 |
| 20260506202835 | 59 | 273 | 2.0 | 3.0 | 0.00 | 0.56 | 0.56 | 84 | 1012.3 |
| 20260506202332 | 59 | 350 | 2.0 | 5.0 | 0.00 | 0.56 | 0.56 | 86 | 1012.2 |
| 20260506201829 | 59 | 256 | 0.0 | 4.0 | 0.00 | 0.56 | 0.56 | 87 | 1012.5 |
| 20260506201326 | 59 | 259 | 2.0 | 7.0 | 0.00 | 0.56 | 0.56 | 87 | 1012.5 |
| 20260506200822 | 58 | 246 | 4.0 | 4.0 | 0.00 | 0.56 | 0.56 | 90 | 1012.2 |
| 20260506200319 | 59 | 345 | 2.0 | 5.0 | 0.00 | 0.56 | 0.56 | 88 | 1012.0 |
| 20260506195815 | 59 | 336 | 5.0 | 5.0 | 0.00 | 0.56 | 0.56 | 88 | 1012.2 |
| 20260506195313 | 59 | 339 | 7.0 | 8.0 | 0.02 | 0.56 | 0.56 | 90 | 1012.1 |
| 20260506194809 | 59 | 322 | 4.0 | 7.0 | 0.02 | 0.56 | 0.56 | 89 | 1012.2 |
| 20260506194306 | 59 | 350 | 2.0 | 4.0 | 0.00 | 0.55 | 0.55 | 89 | 1012.1 |
| 20260506193804 | 59 | 271 | 2.0 | 3.0 | 0.00 | 0.55 | 0.55 | 88 | 1012.2 |
| 20260506193300 | 59 | 357 | 3.0 | 4.0 | 0.00 | 0.55 | 0.55 | 89 | 1012.1 |
| 20260506192756 | 60 | 8 | 2.0 | 6.0 | 0.00 | 0.55 | 0.55 | 87 | 1012.0 |
| 20260506192253 | 61 | 69 | 2.0 | 4.0 | 0.00 | 0.55 | 0.55 | 87 | 1011.7 |
| 20260506191750 | 61 | 316 | 1.0 | 3.0 | 0.00 | 0.55 | 0.55 | 86 | 1011.7 |
| 20260506191246 | 62 | 0 | 3.0 | 5.0 | 0.00 | 0.55 | 0.55 | 85 | 1011.5 |
| 20260506190744 | 62 | 316 | 2.0 | 3.0 | 0.00 | 0.55 | 0.55 | 85 | 1011.7 |
| 20260506190240 | 61 | 309 | 0.0 | 4.0 | 0.00 | 0.55 | 0.55 | 85 | 1011.4 |
| 20260506185737 | 61 | 238 | 3.0 | 8.0 | 0.00 | 0.55 | 0.55 | 85 | 1011.7 |
| 20260506185233 | 61 | 120 | 2.0 | 2.0 | 0.00 | 0.55 | 0.55 | 85 | 1012.0 |
| 20260506184731 | 62 | 267 | 2.0 | 5.0 | 0.00 | 0.55 | 0.55 | 85 | 1011.5 |
| 20260506184228 | 61 | 329 | 4.0 | 5.0 | 0.00 | 0.55 | 0.55 | 83 | 1011.5 |
| 20260506183725 | 61 | 314 | 2.0 | 4.0 | 0.00 | 0.55 | 0.55 | 83 | 1011.8 |
| 20260506183221 | 61 | 8 | 4.0 | 9.0 | 0.00 | 0.55 | 0.55 | 83 | 1011.7 |
| 20260506182718 | 61 | 22 | 3.0 | 5.0 | 0.00 | 0.55 | 0.55 | 85 | 1011.7 |
| 20260506182215 | 61 | 44 | 3.0 | 4.0 | 0.00 | 0.55 | 0.55 | 84 | 1011.8 |
| 20260506181713 | 61 | 166 | 2.0 | 12.0 | 0.00 | 0.55 | 0.55 | 85 | 1011.5 |
| 20260506181210 | 61 | 319 | 1.0 | 6.0 | 0.00 | 0.55 | 0.55 | 85 | 1011.8 |
| 20260506180707 | 61 | 216 | 2.0 | 5.0 | 0.00 | 0.55 | 0.55 | 84 | 1011.5 |
| 20260506180203 | 61 | 151 | 1.0 | 3.0 | 0.00 | 0.55 | 0.55 | 85 | 1011.9 |
| 20260506175659 | 61 | 252 | 3.0 | 5.0 | 0.00 | 0.55 | 0.55 | 84 | 1012.0 |
| 20260506175156 | 61 | 212 | 4.0 | 4.0 | 0.00 | 0.55 | 0.55 | 85 | 1011.9 |
| 20260506174654 | 61 | 305 | 3.0 | 9.0 | 0.00 | 0.55 | 0.55 | 85 | 1011.9 |
| 20260506174151 | 61 | 0 | 1.0 | 5.0 | 0.00 | 0.55 | 0.55 | 87 | 1011.8 |
| 20260506173649 | 61 | 349 | 3.0 | 4.0 | 0.00 | 0.55 | 0.55 | 86 | 1012.2 |
| 20260506173145 | 62 | 351 | 4.0 | 7.0 | 0.00 | 0.55 | 0.55 | 85 | 1012.1 |
| 20260506172642 | 62 | 239 | 3.0 | 5.0 | 0.00 | 0.55 | 0.55 | 83 | 1012.0 |
| 20260506172139 | 62 | 356 | 3.0 | 6.0 | 0.00 | 0.55 | 0.55 | 83 | 1012.0 |
| 20260506171631 | 61 | 35 | 3.0 | 4.0 | 0.00 | 0.55 | 0.55 | 86 | 1011.9 |
| 20260506171128 | 61 | 31 | 2.0 | 5.0 | 0.00 | 0.55 | 0.55 | 86 | 1012.0 |
| 20260506170625 | 61 | 303 | 4.0 | 8.0 | 0.00 | 0.55 | 0.55 | 90 | 1011.9 |
| 20260506170117 | 61 | 309 | 0.0 | 4.0 | 0.02 | 0.55 | 0.55 | 89 | 1012.1 |
| 20260506165616 | 61 | 281 | 4.0 | 12.0 | 0.02 | 0.55 | 0.55 | 91 | 1011.9 |
| 20260506165111 | 61 | 55 | 1.0 | 3.0 | 0.00 | 0.55 | 0.55 | 92 | 1011.9 |
| 20260506164609 | 61 | 89 | 1.0 | 2.0 | 0.02 | 0.55 | 0.55 | 92 | 1011.8 |
| 20260506164106 | 61 | 151 | 2.0 | 2.0 | 0.05 | 0.55 | 0.55 | 91 | 1011.8 |
| 20260506163602 | 61 | 210 | 0.0 | 4.0 | 0.02 | 0.54 | 0.54 | 89 | 1011.9 |
| 20260506163057 | 61 | 168 | 0.0 | 3.0 | 0.00 | 0.54 | 0.54 | 90 | 1011.8 |
| 20260506162553 | 61 | 230 | 0.0 | 5.0 | 0.00 | 0.54 | 0.54 | 89 | 1011.7 |
| 20260506162045 | 61 | 133 | 0.0 | 5.0 | 0.00 | 0.54 | 0.54 | 91 | 1011.5 |
| 20260506161543 | 61 | 75 | 1.0 | 5.0 | 0.02 | 0.54 | 0.54 | 91 | 1011.4 |
| 20260506161039 | 60 | 285 | 2.0 | 11.0 | 0.02 | 0.54 | 0.54 | 91 | 1011.5 |
| 20260506160537 | 60 | 73 | 1.0 | 3.0 | 0.07 | 0.54 | 0.54 | 91 | 1011.7 |
| 20260506160034 | 61 | 103 | 0.0 | 2.0 | 0.05 | 0.53 | 0.53 | 91 | 1011.4 |
| 20260506155533 | 61 | 252 | 2.0 | 9.0 | 0.02 | 0.52 | 0.52 | 90 | 1011.3 |